Weather in Prokopyevka

Russia / Komi Republic     59°16′49″N   49°40′37″E
temp.,
°C
wind,
m/s
gust,
m/s
humid.,
%
clouds,
%
prec.,
mm/h
press.,
hPa
HPBL,
m
4 july, mon
mon400:00+10n228487 0.0 101520
03:00+8ne2596100 0.0 101684
06:00+12ne376760 0.0 1016356
09:00+16ne46505 0.0 10161297
12:00+19ne46364 0.0 10161705
15:00+20ne4535100 0.0 10161946
18:00+18ene2555100 0.0 1016225
21:00+12ese117199 0.0 101710
5 july, tue
tue500:00+10nw0069100 0.0 101810
03:00+9wnw117569 0.0 101810
06:00+14wnw236072 0.0 1018207
09:00+20nw234527 0.0 10171125
12:00+23nnw223411 0.0 10161643
15:00+24nw23325 0.0 10151853
18:00+23wnw11535 0.0 101530
21:00+15wnw22660 0.0 101511
6 july, wed
wed600:00+13wsw22680 0.0 101516
03:00+12w23800 0.0 101545
06:00+17wsw246344 0.0 1014175
09:00+23wsw34495 0.0 1014715
12:00+26wsw34415 0.0 10132119
15:00+27wsw443998 0.0 10122195
18:00+23ssw256739 0.0 1012176
21:00+19sw286998 0.0 1013181
7 july, thu
thu700:00+16ssw229635 0.1 101231
03:00+15sw239918 1.9 101354
06:00+19ssw23935 0.0 1013193
09:00+23ssw347244 0.3 1013704
12:00+26sw355812 1.2 10131376
15:00+26wsw3560100 1.8 1013945
18:00+24ssw238315 1.2 101264
21:00+19sw39967 3.7 1013215
8 july, fri
fri800:00+17sw389816 0.2 1013187
03:00+16wsw259978 0.2 1014129
06:00+18wnw369698 0.1 1015458
09:00+17nw3595100 0.2 1016455
12:00+19nw357383 0.1 1017883
15:00+22nnw345970 0.1 10171012
18:00+22n146359 0.0 10171014
21:00+16ssw11825 0.0 101811